Flag for Germany Weather past 2 weeks in Tübingen, Baden-Württemberg, Germany

Now
73 °F

Partly sunny.


Feels Like: 76 °F
Forecast: 57 / 79 °F
Wind: 2 mph from North

Location: Stuttgart-Echterdingen

Current Time: Sep 18, 2014 at 4:40:15 PM

Latest Report: Sep 18, 2014 at 4:20 PM


Visibility: N/A

Pressure: 29.92 "Hg

Humidity: 65%

Dew point: 61 °F

Location of TübingenLocation

Historic Weather in Tübingen — Graph

°F

Tübingen temperature yesterday

Maximum temperature yesterday: 75 °F (at 3:20 PM)
Minimum temperature yesterday: 52 °F (at 3:50 AM)
Average temperature yesterday: 61 °F

Past Weeks' High & Low Weather Summary

 TemperatureHumidityPressure
High77 °F (Sep 6, 2:50 PM)100% (Sep 5, 3:50 AM)30.15 "Hg (Sep 5, 3:50 AM)
Low52 °F (Sep 11, 1:50 AM)50% (Sep 5, 5:20 PM)29.89 "Hg (Sep 17, 2:50 PM)
Average61 °F84%30.02 "Hg
* Reported Sep 3 3:20 PM — Sep 18 3:20 PM, Tübingen, Weather by CustomWeather, © 2014

Note: Actual official high and low records may vary slightly from our data, if they occured in-between our weather recording intervals... More about our weather records

Advertising

Tübingen weather history for previous 24 hours

 ConditionsComfort  
Time TempWeatherWind HumidityBarometerVisibility
3:20 PM
Sep 18
73 °FBroken clouds.2 mph65%29.89 "HgN/A
2:50 PM73 °FBroken clouds.1 mph61%29.89 "HgN/A
2:20 PM73 °FBroken clouds.2 mph61%29.89 "HgN/A
1:50 PM73 °FBroken clouds.3 mph65%29.89 "HgN/A
1:20 PM72 °FBroken clouds.3 mph73%29.89 "HgN/A
12:50 PM73 °FBroken clouds.3 mph69%29.89 "HgN/A
12:20 PM72 °FSunny.3 mph69%29.92 "Hg10 mi
11:50 AM72 °FSunny.1 mph69%29.92 "Hg10 mi
11:20 AM68 °FSunny.1 mph78%29.92 "Hg10 mi
10:50 AM68 °FSunny.1 mph78%29.92 "Hg10 mi
10:20 AM68 °FSunny.1 mph78%29.92 "Hg10 mi
9:50 AM64 °FSunny.1 mph83%29.92 "Hg10 mi
9:20 AM64 °FSunny.1 mph83%29.92 "Hg10 mi
8:50 AM61 °FSunny.2 mph94%29.92 "Hg10 mi
8:20 AM59 °FSunny.1 mph94%29.89 "Hg10 mi
7:50 AM57 °FClear.No wind94%29.89 "Hg10 mi
7:20 AM57 °FClear.3 mph94%29.89 "Hg10 mi
6:50 AM57 °FClear.2 mph94%29.89 "Hg10 mi
6:20 AM57 °FClear.2 mph94%29.89 "Hg10 mi
5:50 AM57 °FClear.3 mph94%29.89 "Hg10 mi
5:20 AM59 °FClear.1 mph88%29.89 "Hg10 mi
4:50 AM59 °FPassing clouds.1 mph94%29.89 "HgN/A
4:20 AM59 °FLight rain. Clear.1 mph94%29.89 "HgN/A
3:50 AM59 °FClear.1 mph88%29.89 "Hg10 mi
3:20 AM59 °FClear.1 mph88%29.89 "Hg10 mi
2:50 AM59 °FClear.3 mph88%29.89 "Hg10 mi
2:20 AM59 °FClear.2 mph88%29.89 "Hg10 mi
1:50 AM59 °FClear.1 mph94%29.89 "Hg10 mi
1:20 AM57 °FClear.1 mph94%29.89 "Hg10 mi
12:50 AM59 °FClear.2 mph88%29.92 "Hg10 mi
12:20 AM59 °FClear.3 mph88%29.92 "Hg10 mi
11:50 PM
Sep 17
59 °FClear.1 mph88%29.89 "Hg10 mi
11:20 PM59 °FClear.1 mph88%29.92 "Hg10 mi
10:50 PM59 °FClear.1 mph88%29.92 "Hg10 mi
10:20 PM59 °FClear.1 mph88%29.92 "Hg10 mi
9:50 PM61 °FClear.1 mph88%29.92 "Hg10 mi
9:20 PM61 °FClear.2 mph83%29.92 "Hg10 mi
8:50 PM63 °FClear.2 mph83%29.92 "Hg10 mi
8:20 PM63 °FSunny.6 mph83%29.92 "Hg10 mi
7:50 PM64 °FSunny.9 mph73%29.89 "Hg10 mi
7:20 PM66 °FSunny.8 mph73%29.89 "Hg10 mi
6:50 PM70 °FSunny.8 mph64%29.89 "Hg10 mi
6:20 PM70 °FSunny.9 mph69%29.89 "Hg10 mi
5:50 PM72 °FSunny.9 mph65%29.89 "Hg10 mi
5:20 PM73 °FScattered clouds.8 mph61%29.89 "HgN/A
4:50 PM75 °FScattered clouds.8 mph57%29.89 "HgN/A
4:20 PM75 °FScattered clouds.6 mph57%29.89 "HgN/A
Weather by CustomWeather, © 2014

See weather overviewHow to use our weather pages